| time (UTC) | temp C | wind direction | speed KPH | gust KPH | rain 1hr cm | rain 24hr cm | rain mn cm | humidity % | barometer mb |
| 20260504160202 | 24 | 262 | 1.6 | 4.8 | 0.00 | 0.00 | 0.00 | 35 | 1011.0 |
| 20260504150700 | 22 | 258 | 1.6 | 8.0 | 0.00 | 0.00 | 0.00 | 38 | 1011.7 |
| 20260504150201 | 22 | 214 | 3.2 | 6.4 | 0.00 | 0.00 | 0.00 | 37 | 1011.8 |
| 20260504141159 | 20 | 142 | 1.6 | 6.4 | 0.00 | 0.00 | 0.00 | 41 | 1011.7 |
| 20260504140659 | 20 | 111 | 1.6 | 6.4 | 0.00 | 0.00 | 0.00 | 41 | 1011.7 |
| 20260504140200 | 20 | 90 | 1.6 | 6.4 | 0.00 | 0.00 | 0.00 | 41 | 1011.8 |
| 20260504130151 | 17 | 272 | 1.6 | 4.8 | 0.00 | 0.00 | 0.00 | 51 | 1012.4 |
| 20260504120140 | 12 | 195 | 1.6 | 4.8 | 0.00 | 0.00 | 0.00 | 62 | 1012.8 |
| 20260504110630 | 8 | 338 | 0.0 | 0.0 | 0.00 | 0.00 | 0.00 | 77 | 1012.8 |
| 20260504110133 | 8 | 338 | 0.0 | 0.0 | 0.00 | 0.00 | 0.00 | 76 | 1012.7 |
| 20260504100105 | 8 | 338 | 0.0 | 0.0 | 0.00 | 0.00 | 0.00 | 72 | 1012.6 |
| 20260504081551 | 8 | 338 | 0.0 | 3.2 | 0.00 | 0.00 | 0.00 | 74 | 1013.0 |
| 20260504081051 | 7 | 338 | 0.0 | 3.2 | 0.00 | 0.00 | 0.00 | 80 | 1013.0 |
| 20260504080829 | 7 | 338 | 0.0 | 3.2 | 0.00 | 0.00 | 0.00 | 81 | 1012.9 |
| 20260504050516 | 6 | 338 | 0.0 | 0.0 | 0.00 | 0.00 | 0.00 | 84 | 1013.5 |
| 20260504050253 | 6 | 338 | 0.0 | 0.0 | 0.00 | 0.00 | 0.00 | 84 | 1013.5 |
| 20260504045510 | 5 | 338 | 0.0 | 0.0 | 0.00 | 0.00 | 0.00 | 84 | 1013.5 |
| 20260504045011 | 5 | 338 | 0.0 | 0.0 | 0.00 | 0.00 | 0.00 | 84 | 1013.5 |
| 20260504044509 | 5 | 338 | 0.0 | 0.0 | 0.00 | 0.00 | 0.00 | 84 | 1013.6 |
| 20260504044008 | 5 | 338 | 0.0 | 0.0 | 0.00 | 0.00 | 0.00 | 83 | 1013.5 |
| 20260504043747 | 5 | 338 | 0.0 | 1.6 | 0.00 | 0.00 | 0.00 | 83 | 1013.6 |
| 20260504043007 | 5 | 338 | 0.0 | 1.6 | 0.00 | 0.00 | 0.00 | 84 | 1013.5 |
| 20260504042505 | 5 | 338 | 0.0 | 0.0 | 0.00 | 0.00 | 0.00 | 83 | 1013.4 |
| 20260504042006 | 5 | 338 | 0.0 | 0.0 | 0.00 | 0.00 | 0.00 | 83 | 1013.4 |
| 20260504041504 | 5 | 338 | 0.0 | 0.0 | 0.00 | 0.00 | 0.00 | 83 | 1013.4 |
| 20260504041002 | 5 | 338 | 0.0 | 0.0 | 0.00 | 0.00 | 0.00 | 83 | 1013.5 |
| 20260504040502 | 5 | 338 | 0.0 | 0.0 | 0.00 | 0.00 | 0.00 | 83 | 1013.4 |
| 20260504040003 | 5 | 338 | 0.0 | 0.0 | 0.00 | 0.00 | 0.00 | 82 | 1013.4 |
| 20260504035503 | 5 | 338 | 0.0 | 0.0 | 0.00 | 0.00 | 0.00 | 82 | 1013.5 |
| 20260504035003 | 5 | 338 | 0.0 | 0.0 | 0.00 | 0.00 | 0.00 | 82 | 1013.4 |
| 20260504034504 | 5 | 338 | 0.0 | 0.0 | 0.00 | 0.00 | 0.00 | 82 | 1013.5 |
| 20260504034000 | 5 | 338 | 0.0 | 0.0 | 0.00 | 0.00 | 0.00 | 82 | 1013.5 |
| 20260504033500 | 5 | 338 | 0.0 | 0.0 | 0.00 | 0.00 | 0.00 | 82 | 1013.6 |
| 20260504033000 | 5 | 338 | 0.0 | 0.0 | 0.00 | 0.00 | 0.00 | 81 | 1013.5 |
| 20260504032500 | 5 | 338 | 0.0 | 0.0 | 0.00 | 0.00 | 0.00 | 81 | 1013.4 |
| 20260504031959 | 6 | 338 | 0.0 | 0.0 | 0.00 | 0.00 | 0.00 | 81 | 1013.4 |
| 20260504031455 | 6 | 338 | 0.0 | 0.0 | 0.00 | 0.00 | 0.00 | 80 | 1013.2 |
| 20260504030954 | 6 | 338 | 0.0 | 0.0 | 0.00 | 0.00 | 0.00 | 79 | 1013.3 |
| 20260504030453 | 6 | 338 | 0.0 | 0.0 | 0.00 | 0.00 | 0.00 | 79 | 1013.3 |
| 20260504025953 | 6 | 338 | 0.0 | 0.0 | 0.00 | 0.00 | 0.00 | 79 | 1013.3 |
| 20260504025454 | 6 | 338 | 0.0 | 0.0 | 0.00 | 0.00 | 0.00 | 78 | 1013.3 |
| 20260504024954 | 6 | 338 | 0.0 | 0.0 | 0.00 | 0.00 | 0.00 | 78 | 1013.2 |
| 20260504024456 | 6 | 338 | 0.0 | 0.0 | 0.00 | 0.00 | 0.00 | 78 | 1013.2 |
| 20260504023945 | 6 | 338 | 0.0 | 0.0 | 0.00 | 0.00 | 0.00 | 76 | 1013.2 |
| 20260504023445 | 6 | 338 | 0.0 | 0.0 | 0.00 | 0.00 | 0.00 | 76 | 1013.2 |
| 20260504022944 | 6 | 338 | 0.0 | 0.0 | 0.00 | 0.00 | 0.00 | 76 | 1013.1 |
| 20260504022444 | 7 | 338 | 0.0 | 0.0 | 0.00 | 0.00 | 0.00 | 75 | 1013.1 |
| 20260504021943 | 7 | 338 | 0.0 | 0.0 | 0.00 | 0.00 | 0.00 | 75 | 1013.1 |
| 20260504021727 | 7 | 338 | 0.0 | 0.0 | 0.00 | 0.00 | 0.00 | 74 | 1013.1 |
| 20260504020943 | 7 | 338 | 0.0 | 0.0 | 0.00 | 0.00 | 0.00 | 74 | 1013.0 |
| 20260504020442 | 7 | 338 | 0.0 | 0.0 | 0.00 | 0.00 | 0.00 | 74 | 1013.0 |
| 20260504015943 | 7 | 338 | 0.0 | 0.0 | 0.00 | 0.00 | 0.00 | 73 | 1012.9 |
| 20260504015726 | 7 | 338 | 0.0 | 0.0 | 0.00 | 0.00 | 0.00 | 72 | 1012.9 |
| 20260504015222 | 7 | 338 | 0.0 | 0.0 | 0.00 | 0.00 | 0.00 | 71 | 1012.8 |
| 20260504014443 | 8 | 338 | 0.0 | 0.0 | 0.00 | 0.00 | 0.00 | 70 | 1012.8 |
| 20260504013945 | 8 | 338 | 0.0 | 0.0 | 0.00 | 0.00 | 0.00 | 69 | 1012.8 |
| 20260504013443 | 8 | 338 | 0.0 | 0.0 | 0.00 | 0.00 | 0.00 | 69 | 1012.8 |
| 20260504012943 | 8 | 338 | 0.0 | 0.0 | 0.00 | 0.00 | 0.00 | 68 | 1012.7 |
| 20260504012442 | 8 | 338 | 0.0 | 0.0 | 0.00 | 0.00 | 0.00 | 67 | 1012.7 |
| 20260504011942 | 8 | 338 | 0.0 | 0.0 | 0.00 | 0.00 | 0.00 | 65 | 1012.6 |
| 20260504011441 | 9 | 338 | 0.0 | 0.0 | 0.00 | 0.00 | 0.00 | 64 | 1012.6 |
| 20260504010941 | 9 | 338 | 0.0 | 0.0 | 0.00 | 0.00 | 0.00 | 62 | 1012.6 |
| 20260504010441 | 10 | 338 | 0.0 | 0.0 | 0.00 | 0.00 | 0.00 | 62 | 1012.6 |
| 20260504005941 | 10 | 338 | 0.0 | 0.0 | 0.00 | 0.00 | 0.00 | 61 | 1012.6 |
| 20260504005438 | 10 | 338 | 0.0 | 0.0 | 0.00 | 0.00 | 0.00 | 60 | 1012.7 |
| 20260504004938 | 10 | 338 | 0.0 | 0.0 | 0.00 | 0.00 | 0.00 | 58 | 1012.6 |
| 20260504004438 | 10 | 338 | 0.0 | 0.0 | 0.00 | 0.00 | 0.00 | 57 | 1012.4 |
| 20260504003936 | 10 | 338 | 0.0 | 0.0 | 0.00 | 0.00 | 0.00 | 57 | 1012.4 |
| 20260504003433 | 11 | 338 | 0.0 | 0.0 | 0.00 | 0.00 | 0.00 | 55 | 1012.3 |
| 20260504003213 | 11 | 338 | 0.0 | 0.0 | 0.00 | 0.00 | 0.00 | 54 | 1012.3 |
| 20260504002435 | 11 | 338 | 0.0 | 0.0 | 0.00 | 0.00 | 0.00 | 54 | 1012.3 |
| 20260504001932 | 12 | 338 | 0.0 | 0.0 | 0.00 | 0.00 | 0.00 | 53 | 1012.3 |
| 20260504001432 | 12 | 338 | 0.0 | 0.0 | 0.00 | 0.00 | 0.00 | 50 | 1012.3 |
| 20260504000929 | 12 | 338 | 0.0 | 0.0 | 0.00 | 0.00 | 0.00 | 49 | 1012.3 |
| 20260504000427 | 13 | 338 | 0.0 | 0.0 | 0.00 | 0.00 | 0.00 | 46 | 1012.1 |
| 20260503235928 | 13 | 338 | 0.0 | 0.0 | 0.00 | 0.00 | 0.00 | 45 | 1012.0 |
| 20260503235425 | 13 | 338 | 0.0 | 0.0 | 0.00 | 0.00 | 0.00 | 43 | 1012.0 |
| 20260503234922 | 13 | 338 | 0.0 | 0.0 | 0.00 | 0.00 | 0.00 | 41 | 1012.0 |
| 20260503234418 | 14 | 338 | 0.0 | 0.0 | 0.00 | 0.00 | 0.00 | 40 | 1012.0 |
| 20260503233918 | 14 | 338 | 0.0 | 1.6 | 0.00 | 0.00 | 0.00 | 40 | 1011.9 |
| 20260503233418 | 15 | 338 | 0.0 | 1.6 | 0.00 | 0.00 | 0.00 | 38 | 1012.0 |
| 20260503232915 | 15 | 338 | 0.0 | 1.6 | 0.00 | 0.00 | 0.00 | 37 | 1011.9 |
| 20260503232418 | 15 | 338 | 0.0 | 8.0 | 0.00 | 0.00 | 0.00 | 36 | 1011.9 |
| 20260503231907 | 15 | 338 | 1.6 | 8.0 | 0.00 | 0.00 | 0.00 | 36 | 1011.8 |
| 20260503231407 | 15 | 262 | 0.0 | 8.0 | 0.00 | 0.00 | 0.00 | 36 | 1011.7 |
| 20260503230904 | 15 | 264 | 1.6 | 8.0 | 0.00 | 0.00 | 0.00 | 36 | 1011.6 |
| 20260503230404 | 15 | 245 | 1.6 | 6.4 | 0.00 | 0.00 | 0.00 | 34 | 1011.7 |
| 20260503225904 | 16 | 290 | 0.0 | 3.2 | 0.00 | 0.00 | 0.00 | 36 | 1011.6 |
| 20260503225404 | 16 | 290 | 0.0 | 4.8 | 0.00 | 0.00 | 0.00 | 37 | 1011.7 |
| 20260503224905 | 16 | 281 | 0.0 | 4.8 | 0.00 | 0.00 | 0.00 | 35 | 1011.7 |
| 20260503224404 | 16 | 14 | 3.2 | 6.4 | 0.00 | 0.00 | 0.00 | 35 | 1011.7 |
| 20260503223904 | 16 | 303 | 0.0 | 6.4 | 0.00 | 0.00 | 0.00 | 35 | 1011.7 |
| 20260503223402 | 16 | 258 | 3.2 | 4.8 | 0.00 | 0.00 | 0.00 | 34 | 1011.7 |
| 20260503222902 | 16 | 331 | 1.6 | 9.7 | 0.00 | 0.00 | 0.00 | 35 | 1011.8 |
| 20260503222645 | 16 | 18 | 1.6 | 9.7 | 0.00 | 0.00 | 0.00 | 34 | 1011.7 |
| 20260503221901 | 16 | 196 | 1.6 | 4.8 | 0.00 | 0.00 | 0.00 | 33 | 1011.8 |
| 20260503221402 | 16 | 172 | 1.6 | 6.4 | 0.00 | 0.00 | 0.00 | 33 | 1011.8 |
| 20260503221143 | 17 | 261 | 0.0 | 6.4 | 0.00 | 0.00 | 0.00 | 33 | 1011.8 |
| 20260503220400 | 17 | 353 | 1.6 | 6.4 | 0.00 | 0.00 | 0.00 | 33 | 1011.8 |
| 20260503220142 | 16 | 292 | 1.6 | 6.4 | 0.00 | 0.00 | 0.00 | 32 | 1011.8 |
| 20260503215400 | 16 | 262 | 3.2 | 6.4 | 0.00 | 0.00 | 0.00 | 33 | 1011.9 |
| 20260503214859 | 17 | 240 | 3.2 | 8.0 | 0.00 | 0.00 | 0.00 | 33 | 1011.8 |
| 20260503214400 | 17 | 4 | 1.6 | 8.0 | 0.00 | 0.00 | 0.00 | 32 | 1011.8 |
| 20260503213856 | 17 | 0 | 1.6 | 6.4 | 0.00 | 0.00 | 0.00 | 33 | 1011.9 |
| 20260503213638 | 17 | 212 | 3.2 | 11.3 | 0.00 | 0.00 | 0.00 | 33 | 1012.0 |
| 20260503212858 | 17 | 343 | 4.8 | 11.3 | 0.00 | 0.00 | 0.00 | 32 | 1012.0 |
| 20260503212357 | 17 | 245 | 3.2 | 6.4 | 0.00 | 0.00 | 0.00 | 32 | 1012.0 |
| 20260503211859 | 17 | 0 | 1.6 | 11.3 | 0.00 | 0.00 | 0.00 | 33 | 1011.9 |
| 20260503211356 | 17 | 255 | 3.2 | 11.3 | 0.00 | 0.00 | 0.00 | 31 | 1012.0 |
| 20260503211134 | 17 | 223 | 3.2 | 9.7 | 0.00 | 0.00 | 0.00 | 31 | 1012.0 |
| 20260503210356 | 17 | 220 | 1.6 | 17.7 | 0.00 | 0.00 | 0.00 | 33 | 1012.0 |
| 20260503205855 | 17 | 326 | 4.8 | 17.7 | 0.00 | 0.00 | 0.00 | 31 | 1012.0 |
| 20260503205633 | 17 | 68 | 3.2 | 9.7 | 0.00 | 0.00 | 0.00 | 31 | 1012.0 |
| 20260503204854 | 17 | 220 | 4.8 | 9.7 | 0.00 | 0.00 | 0.00 | 32 | 1012.1 |
| 20260503204351 | 17 | 264 | 3.2 | 9.7 | 0.00 | 0.00 | 0.00 | 31 | 1012.3 |
| 20260503203848 | 17 | 183 | 3.2 | 9.7 | 0.00 | 0.00 | 0.00 | 34 | 1012.3 |
| 20260503203350 | 17 | 269 | 3.2 | 8.0 | 0.00 | 0.00 | 0.00 | 33 | 1012.0 |
| 20260503202847 | 17 | 243 | 4.8 | 9.7 | 0.00 | 0.00 | 0.00 | 31 | 1012.0 |
| 20260503202347 | 17 | 303 | 3.2 | 9.7 | 0.00 | 0.00 | 0.00 | 34 | 1012.1 |
| 20260503201847 | 17 | 310 | 4.8 | 14.5 | 0.00 | 0.00 | 0.00 | 34 | 1012.3 |
| 20260503201645 | 17 | 283 | 3.2 | 9.7 | 0.00 | 0.00 | 0.00 | 35 | 1012.5 |
| 20260503201641 | 17 | 295 | 3.2 | 14.5 | 0.00 | 0.00 | 0.00 | 34 | 1012.5 |
| 20260503200341 | 17 | 251 | 3.2 | 6.4 | 0.00 | 0.00 | 0.00 | 37 | 1012.6 |
| 20260503195840 | 17 | 69 | 1.6 | 16.1 | 0.00 | 0.00 | 0.00 | 34 | 1012.7 |
| 20260503195339 | 17 | 4 | 4.8 | 16.1 | 0.00 | 0.00 | 0.00 | 34 | 1012.8 |
| 20260503195122 | 17 | 18 | 3.2 | 9.7 | 0.00 | 0.00 | 0.00 | 33 | 1012.9 |
| 20260503194333 | 17 | 37 | 4.8 | 11.3 | 0.00 | 0.00 | 0.00 | 36 | 1012.9 |
| 20260503193834 | 17 | 265 | 3.2 | 14.5 | 0.00 | 0.00 | 0.00 | 35 | 1013.0 |
| 20260503193334 | 17 | 102 | 3.2 | 14.5 | 0.00 | 0.00 | 0.00 | 35 | 1013.0 |
| 20260503192831 | 17 | 52 | 3.2 | 11.3 | 0.00 | 0.00 | 0.00 | 36 | 1013.0 |
| 20260503192332 | 17 | 290 | 3.2 | 14.5 | 0.00 | 0.00 | 0.00 | 33 | 1013.2 |
| 20260503191832 | 17 | 307 | 3.2 | 14.5 | 0.00 | 0.00 | 0.00 | 34 | 1013.4 |
| 20260503191331 | 18 | 268 | 3.2 | 14.5 | 0.00 | 0.00 | 0.00 | 35 | 1013.2 |
| 20260503190832 | 18 | 0 | 3.2 | 16.1 | 0.00 | 0.00 | 0.00 | 35 | 1013.3 |
| 20260503190331 | 17 | 292 | 3.2 | 20.9 | 0.00 | 0.00 | 0.00 | 37 | 1013.4 |
| 20260503185831 | 17 | 230 | 6.4 | 20.9 | 0.00 | 0.00 | 0.00 | 34 | 1013.3 |
| 20260503185331 | 17 | 0 | 6.4 | 16.1 | 0.00 | 0.00 | 0.00 | 35 | 1013.5 |
| 20260503184831 | 17 | 269 | 3.2 | 19.3 | 0.00 | 0.00 | 0.00 | 35 | 1013.5 |
| 20260503184332 | 17 | 355 | 6.4 | 19.3 | 0.00 | 0.00 | 0.00 | 37 | 1013.6 |
| 20260503183831 | 16 | 17 | 3.2 | 14.5 | 0.00 | 0.00 | 0.00 | 35 | 1013.5 |
| 20260503183611 | 17 | 219 | 3.2 | 8.0 | 0.00 | 0.00 | 0.00 | 36 | 1013.8 |
| 20260503182830 | 17 | 261 | 3.2 | 6.4 | 0.00 | 0.00 | 0.00 | 36 | 1013.7 |
| 20260503182331 | 17 | 250 | 3.2 | 16.1 | 0.00 | 0.00 | 0.00 | 35 | 1013.8 |
| 20260503181831 | 17 | 269 | 3.2 | 17.7 | 0.00 | 0.00 | 0.00 | 38 | 1013.8 |
| 20260503181330 | 16 | 329 | 4.8 | 17.7 | 0.00 | 0.00 | 0.00 | 35 | 1013.8 |
| 20260503181112 | 16 | 140 | 4.8 | 17.7 | 0.00 | 0.00 | 0.00 | 35 | 1013.9 |
| 20260503180330 | 16 | 324 | 3.2 | 17.7 | 0.00 | 0.00 | 0.00 | 36 | 1013.9 |
| 20260503175829 | 17 | 302 | 1.6 | 14.5 | 0.00 | 0.00 | 0.00 | 37 | 1013.9 |
| 20260503175329 | 17 | 333 | 1.6 | 14.5 | 0.00 | 0.00 | 0.00 | 36 | 1014.0 |
| 20260503175112 | 16 | 257 | 4.8 | 9.7 | 0.00 | 0.00 | 0.00 | 37 | 1014.1 |
| 20260503174329 | 17 | 214 | 1.6 | 14.5 | 0.00 | 0.00 | 0.00 | 36 | 1014.1 |
| 20260503173830 | 17 | 0 | 4.8 | 14.5 | 0.00 | 0.00 | 0.00 | 35 | 1014.0 |
| 20260503173328 | 17 | 266 | 6.4 | 11.3 | 0.00 | 0.00 | 0.00 | 36 | 1014.2 |
| 20260503173108 | 16 | 233 | 3.2 | 19.3 | 0.00 | 0.00 | 0.00 | 38 | 1014.2 |
| 20260503172611 | 16 | 276 | 3.2 | 19.3 | 0.00 | 0.00 | 0.00 | 36 | 1014.2 |
| 20260503171829 | 16 | 276 | 1.6 | 6.4 | 0.00 | 0.00 | 0.00 | 37 | 1014.1 |
| 20260503171329 | 16 | 192 | 4.8 | 8.0 | 0.00 | 0.00 | 0.00 | 38 | 1014.3 |
| 20260503170830 | 16 | 266 | 3.2 | 11.3 | 0.00 | 0.00 | 0.00 | 36 | 1014.3 |
| 20260503170328 | 17 | 355 | 3.2 | 11.3 | 0.00 | 0.00 | 0.00 | 38 | 1014.2 |